STV5 KLAS-KPHX

Flight info

Callsign STV5
Flight time N/A
Altitude 29000
Route RASLR3 ZAYNE WOTRO BRUSR1
Aircraft C750/M-SBDE3FGHRWXY/S

Departure

Time 2026-05-04 02:08
Airport Harry Reid International Airport (KLAS)

Arrival

Time N/A
Airport Phoenix Sky Harbor International Airport (KPHX)
Time Latitude Longitude Altitude Speed Heading
2026-05-04 01:57 36.09720 -115.16199 2101 ft 0 kts 177°
2026-05-04 02:05 36.09716 -115.16199 2101 ft 2 kts 177°
2026-05-04 02:05 36.09705 -115.16187 2100 ft 3 kts 110°
2026-05-04 02:06 36.09737 -115.16152 2099 ft 13 kts 36°
2026-05-04 02:06 36.09787 -115.16029 2096 ft 19 kts 92°
2026-05-04 02:06 36.09887 -115.15931 2095 ft 23 kts 24°
2026-05-04 02:06 36.09970 -115.15842 2090 ft 17 kts 71°
2026-05-04 02:07 36.09992 -115.15745 2088 ft 0 kts 93°
2026-05-04 02:07 36.09992 -115.15740 2088 ft 2 kts 93°
2026-05-04 02:07 36.09981 -115.15697 2088 ft 11 kts 118°
2026-05-04 02:07 36.09880 -115.15692 2089 ft 25 kts 204°
2026-05-04 02:08 36.09406 -115.15964 2105 ft 123 kts 205°
2026-05-04 02:08 36.08558 -115.16469 2561 ft 144 kts 207°
2026-05-04 02:08 36.07568 -115.17021 3093 ft 165 kts 204°
2026-05-04 02:08 36.06470 -115.17600 3742 ft 178 kts 204°
2026-05-04 02:09 36.05303 -115.18240 4447 ft 188 kts 203°
2026-05-04 02:09 36.04028 -115.18938 4808 ft 217 kts 204°
2026-05-04 02:09 36.02524 -115.19758 5007 ft 251 kts 204°
2026-05-04 02:09 36.00925 -115.20628 6117 ft 247 kts 204°
2026-05-04 02:10 35.99370 -115.21345 6882 ft 243 kts 199°
2026-05-04 02:10 35.97684 -115.21983 7025 ft 258 kts 192°
2026-05-04 02:10 35.95885 -115.21925 7032 ft 264 kts 173°
2026-05-04 02:10 35.94074 -115.21478 7045 ft 265 kts 171°
2026-05-04 02:11 35.92281 -115.20786 7293 ft 281 kts 155°
2026-05-04 02:11 35.90793 -115.19295 8718 ft 276 kts 137°
2026-05-04 02:11 35.89700 -115.17289 9719 ft 286 kts 126°
2026-05-04 02:11 35.88672 -115.15138 10047 ft 298 kts 126°
2026-05-04 02:12 35.87566 -115.12859 10048 ft 330 kts 125°
2026-05-04 02:12 35.86425 -115.10255 10012 ft 360 kts 116°
2026-05-04 02:12 35.85734 -115.07404 10073 ft 343 kts 109°
2026-05-04 02:12 35.85084 -115.04499 10551 ft 357 kts 110°
2026-05-04 02:13 35.84368 -115.01573 11460 ft 357 kts 111°
2026-05-04 02:13 35.83630 -114.98620 12115 ft 365 kts 110°
2026-05-04 02:13 35.82904 -114.95609 12907 ft 369 kts 110°
2026-05-04 02:13 35.82178 -114.92558 13625 ft 374 kts 110°
2026-05-04 02:14 35.81429 -114.89473 14293 ft 378 kts 111°
2026-05-04 02:14 35.80663 -114.86348 14980 ft 382 kts 110°
2026-05-04 02:14 35.79898 -114.83204 15684 ft 385 kts 110°
2026-05-04 02:14 35.79128 -114.80025 16423 ft 389 kts 110°
2026-05-04 02:15 35.78346 -114.76816 17120 ft 394 kts 110°
2026-05-04 02:15 35.77551 -114.73568 17808 ft 398 kts 111°
2026-05-04 02:15 35.76747 -114.70285 18433 ft 404 kts 110°
2026-05-04 02:15 35.75928 -114.66939 19003 ft 412 kts 110°
2026-05-04 02:16 35.75093 -114.63528 19512 ft 421 kts 111°
2026-05-04 02:16 35.74236 -114.60043 20121 ft 429 kts 111°
2026-05-04 02:16 35.73362 -114.56487 20695 ft 438 kts 111°
2026-05-04 02:16 35.72472 -114.52871 21251 ft 446 kts 112°
2026-05-04 02:17 35.71563 -114.49187 21730 ft 455 kts 112°
2026-05-04 02:17 35.70460 -114.45533 22254 ft 456 kts 121°
2026-05-04 02:17 35.68881 -114.42117 22906 ft 454 kts 131°
2026-05-04 02:17 35.66940 -114.39117 23456 ft 451 kts 141°
2026-05-04 02:18 35.64661 -114.36502 23976 ft 448 kts 148°
2026-05-04 02:18 35.62277 -114.34002 24505 ft 454 kts 148°
2026-05-04 02:18 35.59862 -114.31446 24991 ft 461 kts 148°
2026-05-04 02:18 35.57430 -114.28864 25539 ft 465 kts 148°
2026-05-04 02:19 35.54964 -114.26265 26107 ft 469 kts 148°
2026-05-04 02:19 35.52468 -114.23647 26625 ft 474 kts 148°
2026-05-04 02:19 35.49948 -114.20997 27176 ft 479 kts 148°
2026-05-04 02:19 35.47404 -114.18315 27761 ft 484 kts 148°
2026-05-04 02:20 35.44835 -114.15612 28303 ft 489 kts 148°
2026-05-04 02:20 35.42255 -114.12903 28761 ft 489 kts 148°
2026-05-04 02:20 35.39638 -114.10169 28820 ft 502 kts 148°
2026-05-04 02:20 35.36963 -114.07369 28848 ft 508 kts 147°
2026-05-04 02:21 35.34422 -114.04283 28856 ft 519 kts 139°
2026-05-04 02:21 35.32199 -114.00744 28878 ft 529 kts 130°
2026-05-04 02:21 35.28925 -113.92518 28880 ft 544 kts 113°
2026-05-04 02:22 35.27028 -113.83626 28868 ft 547 kts 108°
2026-05-04 02:22 35.25132 -113.74600 28851 ft 548 kts 108°
2026-05-04 02:23 35.23259 -113.65580 28820 ft 546 kts 108°
2026-05-04 02:23 35.21539 -113.56506 28785 ft 548 kts 107°
2026-05-04 02:24 35.19806 -113.47432 28780 ft 548 kts 107°
2026-05-04 02:24 35.18088 -113.38368 28779 ft 547 kts 106°
2026-05-04 02:25 35.15465 -113.29756 28783 ft 536 kts 123°
2026-05-04 02:25 35.11441 -113.22143 28810 ft 533 kts 129°
2026-05-04 02:26 35.07336 -113.14601 28813 ft 533 kts 129°
2026-05-04 02:26 35.03188 -113.07113 28814 ft 532 kts 130°
2026-05-04 02:27 34.99048 -112.99628 28814 ft 533 kts 129°
2026-05-04 02:27 34.94891 -112.92129 28814 ft 533 kts 130°
2026-05-04 02:28 34.90727 -112.84644 28817 ft 534 kts 129°
2026-05-04 02:28 34.86630 -112.77263 28293 ft 511 kts 130°
2026-05-04 02:29 34.84643 -112.73712 27789 ft 506 kts 130°
2026-05-04 02:29 34.82666 -112.70189 27291 ft 502 kts 130°
2026-05-04 02:29 34.80715 -112.66692 26793 ft 497 kts 130°
2026-05-04 02:29 34.78782 -112.63225 26294 ft 493 kts 130°
2026-05-04 02:30 34.76858 -112.59790 25809 ft 489 kts 130°
2026-05-04 02:30 34.74947 -112.56390 25332 ft 484 kts 130°
2026-05-04 02:30 34.73060 -112.53028 24848 ft 480 kts 130°
2026-05-04 02:30 34.71147 -112.49733 24523 ft 472 kts 134°
2026-05-04 02:31 34.68951 -112.46847 24054 ft 459 kts 143°
2026-05-04 02:31 34.66535 -112.44386 23604 ft 450 kts 149°
2026-05-04 02:31 34.64104 -112.42027 23115 ft 445 kts 148°
2026-05-04 02:31 34.61711 -112.39668 22645 ft 441 kts 148°
2026-05-04 02:32 34.59342 -112.37337 22220 ft 436 kts 148°
2026-05-04 02:32 34.56985 -112.35044 21782 ft 432 kts 148°
2026-05-04 02:32 34.54651 -112.32778 21325 ft 427 kts 148°
2026-05-04 02:32 34.52367 -112.30543 20886 ft 412 kts 148°
2026-05-04 02:33 34.50211 -112.28420 20465 ft 386 kts 148°
2026-05-04 02:33 34.48161 -112.26425 20071 ft 371 kts 149°
2026-05-04 02:33 34.46154 -112.24515 19693 ft 363 kts 150°
2026-05-04 02:33 34.43979 -112.23055 19251 ft 353 kts 165°
2026-05-04 02:34 34.41655 -112.22238 19079 ft 346 kts 175°
2026-05-04 02:34 34.39297 -112.21645 18771 ft 346 kts 175°
2026-05-04 02:34 34.36955 -112.21035 18430 ft 343 kts 174°
2026-05-04 02:34 34.34630 -112.20423 18073 ft 341 kts 174°
2026-05-04 02:35 34.32322 -112.19824 17698 ft 338 kts 174°
2026-05-04 02:35 34.30035 -112.19237 17355 ft 335 kts 174°
2026-05-04 02:35 34.27758 -112.18650 17043 ft 332 kts 174°
2026-05-04 02:35 34.25509 -112.18066 17030 ft 332 kts 174°
2026-05-04 02:36 34.23239 -112.17480 16792 ft 335 kts 173°
2026-05-04 02:36 34.20958 -112.16897 16367 ft 332 kts 173°
2026-05-04 02:36 34.18723 -112.16307 15948 ft 327 kts 172°